Home   Weather   Mistelbach   Past weeks

Flag for Austria Past Weather in Mistelbach, Lower Austria, Austria — Yesterday and Last 2 Weeks

Now
70 °F

Mild.


Feels Like: 75 °F
Forecast: 63 / 83 °F
Wind: 1 mph from West

Location: Wien / Hohe Warte

Current Time: Jun 25, 2017 at 7:30:17 am

Latest Report: Jun 25, 2017 at 6:00 am


Visibility: N/A

Pressure: 29.91 "Hg

Humidity: 64%

Dew Point: 57 °F

Location of MistelbachLocation

Past Weather in Mistelbach — Graph

°F

Mistelbach Temperature Yesterday

Maximum temperature yesterday: 89 °F (at 4:00 pm)
Minimum temperature yesterday: 66 °F (at 6:00 am)
Average temperature yesterday: 78 °F

High & Low Weather Summary for the Past Weeks

 TemperatureHumidityPressure
High94 °F (Jun 22, 5:00 pm)93% (Jun 16, 7:00 am)30.24 "Hg (Jun 16, 7:00 am)
Low55 °F (Jun 11, 5:00 am)25% (Jun 16, 5:00 pm)29.80 "Hg (Jun 23, 3:00 am)
Average73 °F53%30.01 "Hg
* Reported Jun 10 6:00 am — Jun 25 6:00 am, Mistelbach. Weather by CustomWeather, © 2017

Note: Actual official high and low records may vary slightly from our data, if they occured in-between our weather recording intervals... More about our weather records

Advertising

Mistelbach Weather History for the Previous 24 Hours

Scroll right to see more
 ConditionsComfort  
Time TempWeatherWind HumidityBarometerVisibility
6:00 am
Sun, Jun 25
70 °FMild.1 mph64%29.91 "HgN/A
5:00 am71 °FMild.2 mph62%29.91 "HgN/A
4:00 am74 °FMild.3 mph57%29.89 "HgN/A
3:00 am74 °FMild.2 mph66%29.90 "HgN/A
2:00 am75 °FPassing clouds.2 mph62%29.90 "Hg12 mi
1:00 am78 °FWarm.6 mph54%29.91 "HgN/A
12:00 am79 °FWarm.5 mph52%29.90 "HgN/A
11:00 pm
Sat, Jun 24
79 °FPassing clouds.5 mph54%29.90 "Hg12 mi
10:00 pm81 °FOvercast.5 mph51%29.89 "Hg12 mi
9:00 pm83 °FPassing clouds.5 mph47%29.86 "Hg19 mi
8:00 pm84 °FWarm.5 mph45%29.85 "HgN/A
7:00 pm86 °FPassing clouds.7 mph40%29.85 "Hg25 mi
6:00 pm88 °FPassing clouds.6 mph38%29.85 "Hg25 mi
5:00 pm88 °FPassing clouds.7 mph37%29.86 "Hg22 mi
4:00 pm89 °FPassing clouds.7 mph37%29.88 "Hg25 mi
3:00 pm88 °FPassing clouds.7 mph36%29.90 "Hg25 mi
2:00 pm86 °FPassing clouds.8 mph38%29.93 "Hg22 mi
1:00 pm85 °FPassing clouds.9 mph39%29.94 "Hg19 mi
12:00 pm84 °FPassing clouds.8 mph40%29.95 "Hg19 mi
11:00 am83 °FPassing clouds.7 mph41%29.97 "Hg19 mi
10:00 am80 °FPassing clouds.6 mph42%29.98 "Hg19 mi
9:00 am78 °FPassing clouds.3 mph48%30.00 "Hg19 mi
8:00 am74 °FPassing clouds.3 mph58%30.01 "Hg19 mi
7:00 am68 °FPartly sunny.No wind76%30.02 "Hg19 mi
Weather by CustomWeather, © 2017

See weather overviewHow to use our weather pages